Location: Gebenbach
(49.5378°N, 11.8735°E)
Time: 11:42:36
(UTC+00:00)

Cosmos 1812 Rocket - Pass Details

Date: 29 October 2020
Orbit: 605 x 633 km, 82.5° (Epoch: 24 November)

Event Time Altitude Azimuth Distance (km) Brightness Sun altitude
Rises 17:21:32 0° 165° (SSE) 2,889 6.9 -14.5°
Reaches altitude 10° 17:23:53 10° 157° (SSE) 1,983 6.0 -14.9°
Maximum altitude 17:27:52 35° 91° (E) 1,000 4.1 -15.5°
Drops below altitude 10° 17:31:52 10° 26° (NNE) 1,982 5.9 -16.2°
Sets 17:34:13 0° 18° (NNE) 2,888 6.8 -16.6°
